(3200) Phaethon (2005)

Japanese version
Home page
Updated on June 25, 2006

---------------------------------------------------------------------

* Profile

* Pictures

* Orbital Elements

   The following improved orbital elements by Kenji Muraoka, are 
  from 116 observations 1983 to 1996, perturbations by 9 Plantes,
  Moon and 5 minor planets were taken into account. 
   The mean residual is +/- 0.91 arc seconds.

          T  =  2005 Mar.  2.53918  TT    Epoch  =  2005 Mar. 11.0  TT
       Peri. =  321.98210                     e  =    0.8900199
       Node  =  265.42266    (2000.0)         a  =    1.2713464 AU
       Incl. =   22.17217                     n  =    0.687556270
          q  =    0.1398228 AU                P  =    1.433 years

* Finding Charts

* Magnitudes Graph

        H = 14.3  G = 0.15

---------------------------------------------------------------------

The orbital elements are calculated by Kenji Muraoka.
The charts are made with StellaNavigator Ver.2.0 for Windows (AstroArts / ASCII).
The magnitudes graphs are made with Comet for Windows.

---------------------------------------------------------------------

Copyright(C) Seiichi Yoshida (comet@aerith.net). All rights reserved.